User: anonymous   Login
Location: Newark
(52.2583°N, 7.1190°W)
Time: 00:47:09
(UTC+00:00)
Language:

S-56A Canister/Altair - Orbit

View from above orbital plane
View from above orbital plane
View from above satellite
View from above satellite

Ground track
Ground track

The orbit data is extracted from the following two-line orbital elements,

1 00082U 61004B   21017.59776639 -.00000088  00000-0 -21258-4 0  9994
2 00082  38.8553 125.4391 1174811  37.1069 330.5287 12.26049351834093
Epoch (UTC): 17 January 2021 14:20:47
Eccentricity: 0.1174811
inclination: 38.8553°
perigee height: 633 km
apogee height: 2499 km
right ascension of ascending node: 125.4391°
argument of perigee: 37.1069°
revolutions per day: 12.26049351
mean anomaly at epoch: 330.5287°
orbit number at epoch: 83409

The dashed part of the orbit path shows where the satellite is in the earth's shadow,  

DLR